TimeCST,TemperatureF,Dew PointF,Humidity,Sea Level PressureIn,VisibilityMPH,Wind Direction,Wind SpeedMPH,Gust SpeedMPH,PrecipitationIn,Events,Conditions,WindDirDegrees,DateUTC
12:53 AM,36.0,28.9,76,30.22,10.0,Calm,Calm,-,N/A,,Clear,0,2013-03-07 06:53:00
1:53 AM,36.0,28.9,76,30.21,10.0,NNW,3.5,-,N/A,,Clear,330,2013-03-07 07:53:00
2:53 AM,36.0,28.9,76,30.21,10.0,NNW,3.5,-,N/A,,Clear,330,2013-03-07 08:53:00
3:53 AM,32.0,28.9,88,30.21,10.0,Calm,Calm,-,N/A,,Clear,0,2013-03-07 09:53:00
4:53 AM,30.9,28.0,89,30.22,10.0,Calm,Calm,-,N/A,,Clear,0,2013-03-07 10:53:00
5:53 AM,30.9,28.0,89,30.23,10.0,NNW,3.5,-,N/A,,Clear,330,2013-03-07 11:53:00
6:53 AM,35.1,28.9,78,30.24,10.0,North,4.6,-,N/A,,Clear,10,2013-03-07 12:53:00
7:53 AM,39.9,28.9,65,30.26,10.0,North,10.4,-,N/A,,Clear,10,2013-03-07 13:53:00
8:53 AM,44.1,30.0,58,30.28,10.0,North,6.9,-,N/A,,Clear,360,2013-03-07 14:53:00
9:53 AM,48.9,30.0,48,30.27,10.0,NNE,4.6,-,N/A,,Clear,20,2013-03-07 15:53:00
10:53 AM,53.1,28.9,40,30.27,10.0,NNW,4.6,-,N/A,,Clear,340,2013-03-07 16:53:00
11:53 AM,57.9,26.1,30,30.24,10.0,North,4.6,-,N/A,,Clear,350,2013-03-07 17:53:00
12:53 PM,60.1,27.0,28,30.21,10.0,Calm,Calm,-,N/A,,Clear,0,2013-03-07 18:53:00
1:53 PM,63.0,26.1,25,30.18,5.0,Variable,5.8,-,N/A,,Haze,0,2013-03-07 19:53:00
2:53 PM,64.9,27.0,24,30.17,4.0,Variable,6.9,-,N/A,,Haze,0,2013-03-07 20:53:00
3:53 PM,64.9,27.0,24,30.16,4.0,NNW,5.8,-,N/A,,Haze,330,2013-03-07 21:53:00
4:53 PM,64.0,28.0,26,30.17,9.0,WNW,4.6,-,N/A,,Partly Cloudy,300,2013-03-07 22:53:00
5:53 PM,57.0,32.0,39,30.19,10.0,NW,3.5,-,N/A,,Clear,310,2013-03-07 23:53:00
6:53 PM,51.1,35.1,54,30.20,10.0,NW,4.6,-,N/A,,Clear,320,2013-03-08 00:53:00
7:53 PM,54.0,30.9,41,30.20,10.0,North,8.1,-,N/A,,Clear,350,2013-03-08 01:53:00
8:53 PM,48.9,33.1,54,30.19,10.0,NNW,3.5,-,N/A,,Clear,340,2013-03-08 02:53:00
9:53 PM,44.1,33.1,65,30.20,10.0,NNW,5.8,-,N/A,,Clear,330,2013-03-08 03:53:00
10:53 PM,43.0,33.1,68,30.20,10.0,Calm,Calm,-,N/A,,Clear,0,2013-03-08 04:53:00
11:53 PM,41.0,33.1,73,30.20,10.0,Calm,Calm,-,N/A,,Clear,0,2013-03-08 05:53:00